00:00:10,6453C3E0,0,0,55,0,0,143
00:00:42,6453C7E0,0,0,50,0,0,144
00:01:14,6453CBE0,0,0,51,0,0,144
00:02:18,6453D3E0,0,0,47,0,0,146
00:02:50,6453D7E0,0,0,55,0,0,146
00:03:22,6453DBE0,0,0,53,0,0,145
00:03:54,6453DFE0,0,0,53,0,0,144
00:04:26,6453E3E0,0,0,54,0,0,143
00:04:58,6453E7E0,0,0,52,0,0,142
00:05:30,6453EBE0,0,0,46,0,0,141
00:06:34,6453F3E0,0,0,50,0,0,143
00:07:06,6453F7E0,0,0,50,0,0,144
00:07:38,6453FBE0,0,0,55,0,0,144
00:08:10,6453FFE0,0,0,53,0,0,145
00:08:42,645403E0,0,0,52,0,0,146
00:09:14,645407E0,0,0,46,0,0,146
00:09:46,64540BE0,0,0,50,0,0,145
00:10:50,645413E0,0,0,54,0,0,143
00:11:22,645417E0,0,0,51,0,0,141
00:11:54,64541BE0,0,0,52,0,0,141
00:12:26,64541FE0,0,0,46,0,0,142
00:12:58,645423E0,0,0,48,0,1,143
00:13:30,645427E0,0,0,50,0,0,144
00:14:02,64542BE0,0,0,49,0,0,144
00:15:06,645433E0,0,0,52,0,0,146
00:15:38,645437E0,0,0,48,0,0,146
00:16:10,64543BE0,0,0,52,0,0,145
00:16:42,64543FE0,0,0,52,0,0,143
00:17:14,645443E0,0,0,55,0,0,142
00:17:46,645447E0,0,0,46,0,0,141
00:18:18,64544BE0,0,0,55,0,0,141
00:19:22,645453E0,0,0,55,1,0,143
00:19:54,645457E0,0,0,47,0,0,144
00:20:26,64545BE0,0,0,49,0,0,145
00:20:58,64545FE0,0,0,53,0,0,145
00:21:30,645463E0,0,0,48,0,0,145
00:22:02,645467E0,0,0,52,0,0,146
00:22:34,64546BE0,0,0,51,0,0,145
00:23:38,645473E0,0,0,50,0,0,142
00:24:10,645477E0,0,0,53,0,0,142
00:24:42,64547BE0,0,0,49,0,0,141
00:25:14,64547FE0,0,0,50,0,0,142
00:25:46,645483E0,0,0,51,0,0,143
00:26:18,645487E0,0,0,48,0,0,144
00:26:50,64548BE0,0,0,46,0,0,144
00:27:54,645493E0,0,0,53,0,0,145
00:28:26,645497E0,0,0,46,0,0,146
00:28:58,64549BE0,0,0,50,0,0,145
00:29:30,64549FE0,0,0,56,0,0,144
00:30:02,6454A3E0,0,0,50,0,0,142
00:30:34,6454A7E0,0,0,46,0,0,141
00:31:06,6454ABE0,0,0,48,0,0,141
00:32:10,6454B3E0,0,0,56,0,0,143
00:32:42,6454B7E0,0,0,49,0,0,143
00:33:14,6454BBE0,0,0,54,0,0,144
00:33:46,6454BFE0,0,0,51,0,0,145
00:34:18,6454C3E0,0,0,56,0,0,145
00:34:50,6454C7E0,0,0,53,0,0,146
00:35:22,6454CBE0,0,0,50,0,0,146
00:36:26,6454D3E0,0,0,55,0,0,143
00:36:58,6454D7E0,0,0,54,0,0,142
00:37:30,6454DBE0,0,0,54,0,0,141
00:38:02,6454DFE0,0,0,56,0,0,141
00:38:34,6454E3E0,0,0,52,0,0,142
00:39:06,6454E7E0,0,0,50,0,0,143
00:39:38,6454EBE0,0,0,54,0,0,144
00:40:42,6454F3E0,0,0,52,0,0,145
00:41:14,6454F7E0,0,0,52,0,0,146
00:41:46,6454FBE0,0,0,50,0,0,146
00:42:18,6454FFE0,0,0,47,0,0,144
00:42:50,645503E0,0,0,56,0,0,143
00:43:22,645507E0,0,0,51,0,0,142
00:43:54,64550BE0,0,0,55,0,0,141
00:44:58,645513E0,0,0,53,0,0,143
00:45:30,645517E0,0,0,53,0,1,143
00:46:02,64551BE0,0,0,53,0,1,144
00:46:34,64551FE0,0,0,53,0,1,145
00:47:06,645523E0,0,0,53,0,1,145
00:47:38,645527E0,0,0,53,0,1,146
00:48:10,64552BE0,0,0,53,0,1,146
00:49:14,645533E0,0,0,53,0,1,143
00:49:46,645537E0,0,0,53,0,1,142
00:50:18,64553BE0,0,0,53,0,1,141
00:50:50,64553FE0,0,0,53,0,1,141
00:51:22,645543E0,0,0,53,0,1,142
00:51:54,645547E0,0,0,53,0,1,143
00:52:26,64554BE0,0,0,53,0,1,144
00:53:30,645553E0,0,0,53,0,1,145
00:54:02,645557E0,0,0,53,0,1,145
00:54:34,64555BE0,0,0,53,0,1,146
00:55:06,64555FE0,0,0,53,0,1,145
00:55:38,645563E0,0,0,53,0,1,144
00:56:10,645567E0,0,0,53,0,1,142
00:56:42,64556BE0,0,0,53,0,1,141
00:57:46,645573E0,0,0,53,0,1,142
00:58:18,645577E0,0,0,53,0,1,142
00:58:50,64557BE0,0,0,53,0,1,143
00:59:22,64557FE0,0,0,53,0,1,144
00:59:54,645583E0,0,0,53,0,1,145
01:00:26,645587E0,0,0,53,0,1,145
01:00:58,64558BE0,0,0,53,0,1,146
01:02:02,645593E0,0,0,53,0,1,144
01:02:34,645597E0,0,0,53,0,1,143
01:03:06,64559BE0,0,0,53,0,1,142
01:03:38,64559FE0,0,0,53,0,1,141
01:04:10,6455A3E0,0,0,53,0,1,141
01:04:42,6455A7E0,0,0,53,0,1,142
01:05:14,6455ABE0,0,0,53,0,1,143
01:06:18,6455B3E0,0,0,53,0,1,144
01:06:50,6455B7E0,0,0,53,0,1,145
01:07:22,6455BBE0,0,0,53,0,1,145
01:07:54,6455BFE0,0,0,53,0,1,146
01:08:26,6455C3E0,0,0,53,0,1,146
01:08:58,6455C7E0,0,0,53,0,1,145
01:09:30,6455CBE0,0,0,53,0,1,143
01:10:34,6455D3E0,0,0,53,0,1,141
01:11:06,6455D7E0,0,0,53,0,1,141
01:11:38,6455DBE0,0,0,53,0,1,142
01:12:10,6455DFE0,0,0,53,0,1,143
01:12:42,6455E3E0,0,0,53,0,1,143
01:13:14,6455E7E0,0,0,53,0,1,143
01:13:46,6455EBE0,0,0,53,0,1,141
01:14:50,6455F3E0,0,0,53,0,1,140
01:15:22,6455F7E0,0,0,53,0,1,139
01:15:54,6455FBE0,0,0,53,0,1,138
01:16:26,6455FFE0,0,0,53,0,1,137
01:16:58,645603E0,0,0,53,0,1,137
01:17:30,645607E0,0,0,53,0,1,136
01:18:02,64560BE0,0,0,53,0,1,136
01:19:06,645613E0,0,0,53,0,1,135
01:19:38,645617E0,0,0,53,0,1,135
01:20:10,64561BE0,0,0,53,0,1,135
01:20:42,64561FE0,0,0,53,0,1,135
01:21:14,645623E0,0,0,53,0,1,134
01:21:46,645627E0,0,0,53,0,1,134
01:22:18,64562BE0,0,0,53,0,1,134
01:23:22,645633E0,0,0,53,0,1,134
01:23:54,645637E0,0,0,53,0,1,133
01:24:26,64563BE0,0,0,53,0,1,133
01:24:58,64563FE0,0,0,53,0,1,133
01:25:30,645643E0,0,0,53,0,1,133
01:26:02,645647E0,0,0,53,0,1,133
01:26:34,64564BE0,0,0,53,0,1,133
01:27:38,645653E0,0,0,53,0,1,133
01:28:10,645657E0,0,0,53,0,1,132
01:28:42,64565BE0,0,0,53,0,1,132
01:29:14,64565FE0,0,0,53,0,1,132
01:29:46,645663E0,0,0,53,0,1,132
01:30:18,645667E0,0,0,53,0,1,132
01:30:50,64566BE0,0,0,53,0,1,132
01:31:54,645673E0,0,0,53,0,1,132
01:32:26,645677E0,0,0,53,0,1,132
01:32:58,64567BE0,0,0,53,0,1,132
01:33:30,64567FE0,0,0,53,0,1,132
01:34:02,645683E0,0,0,53,0,1,131
01:34:34,645687E0,0,0,53,0,1,131
01:35:06,64568BE0,0,0,53,0,1,132
01:36:10,645693E0,0,0,53,0,1,131
01:36:42,645697E0,0,0,53,0,1,131
01:37:14,64569BE0,0,0,53,0,1,131
01:37:46,64569FE0,0,0,53,0,1,130
01:38:18,6456A3E0,0,0,53,0,1,130
01:38:50,6456A7E0,0,0,53,0,1,129
01:39:22,6456ABE0,0,0,53,0,1,129
01:40:26,6456B3E0,0,0,53,0,1,128
01:40:58,6456B7E0,0,0,53,0,1,127
01:41:30,6456BBE0,0,0,53,0,1,127
01:41:44,6456BDA0,0,0,53,0,1,126
01:41:48,6456BE20,0,0,53,0,1,126
01:41:52,6456BEA0,0,0,53,0,1,126
01:41:56,6456BF20,0,0,53,0,1,126
01:42:00,6456BFA0,0,0,53,0,1,126
01:42:02,6456BFE0,0,0,53,0,1,126
01:42:04,6456C020,0,0,53,0,1,126
01:42:08,6456C0A0,0,0,53,0,1,126
01:42:12,6456C120,0,0,53,0,1,126
01:42:16,6456C1A0,0,0,53,0,1,126
01:42:20,6456C220,0,0,53,0,1,126
01:42:24,6456C2A0,0,0,53,0,1,126
01:42:28,6456C320,0,0,53,0,1,126
01:42:32,6456C3A0,0,0,53,0,1,126
01:42:34,6456C3E0,0,0,53,0,1,126
01:42:36,6456C420,0,0,53,0,1,126
01:42:40,6456C4A0,0,0,53,0,1,126
01:42:44,6456C520,0,0,53,0,1,125
01:42:48,6456C5A0,0,0,53,0,1,125
01:42:52,6456C620,0,0,53,0,1,125
01:42:56,6456C6A0,0,0,53,0,1,125
01:43:00,6456C720,0,0,53,0,1,125
01:43:04,6456C7A0,0,0,53,0,1,125
01:43:06,6456C7E0,0,0,53,0,1,125
01:43:08,6456C820,0,0,53,0,1,125
01:43:12,6456C8A0,0,0,53,0,1,125
01:43:16,6456C920,0,0,53,0,1,125
01:43:20,6456C9A0,0,0,53,0,1,125
01:43:24,6456CA20,0,0,53,0,1,125
01:43:28,6456CAA0,0,0,53,0,1,125
01:43:32,6456CB20,0,0,53,0,1,125
01:43:36,6456CBA0,0,0,53,0,1,125
01:43:38,6456CBE0,0,0,53,0,1,125
01:43:40,6456CC20,0,0,53,0,1,125
01:43:44,6456CCA0,0,0,53,0,1,125
01:43:48,6456CD20,0,0,53,0,1,124
01:43:52,6456CDA0,0,0,53,0,1,124
01:43:56,6456CE20,0,0,53,0,1,124
01:44:00,6456CEA0,0,0,53,0,1,124
01:44:04,6456CF20,0,0,53,0,1,124
01:44:08,6456CFA0,0,0,53,0,1,124
01:44:12,6456D020,0,0,53,0,1,124
01:44:16,6456D0A0,0,0,53,0,1,124
01:44:20,6456D120,0,0,53,0,1,124
01:44:24,6456D1A0,0,0,53,0,1,124
01:44:28,6456D220,0,0,53,0,1,124
01:44:32,6456D2A0,0,0,53,0,1,124
01:44:36,6456D320,0,0,53,0,1,124
01:44:40,6456D3A0,0,0,53,0,1,124
01:44:42,6456D3E0,0,0,53,0,1,124
01:44:44,6456D420,0,0,53,0,1,124
01:44:48,6456D4A0,0,0,53,0,1,124
01:44:52,6456D520,0,0,53,0,1,124
01:44:56,6456D5A0,0,0,53,0,1,123
01:45:00,6456D620,0,0,53,0,1,123
01:45:04,6456D6A0,0,0,53,0,1,123
01:45:08,6456D720,0,0,53,0,1,123
01:45:12,6456D7A0,0,0,53,0,1,123
01:45:14,6456D7E0,0,0,53,0,1,123
01:45:16,6456D820,0,0,53,0,1,123
01:45:20,6456D8A0,0,0,53,0,1,123
01:45:24,6456D920,0,0,53,0,1,123
01:45:28,6456D9A0,0,0,53,0,1,123
01:45:32,6456DA20,0,0,53,0,1,123
01:45:36,6456DAA0,0,0,53,0,1,123
01:45:40,6456DB20,0,0,53,0,1,123
01:45:44,6456DBA0,0,0,53,0,1,123
01:45:46,6456DBE0,0,0,53,0,1,123
01:45:48,6456DC20,0,0,53,0,1,123
01:45:52,6456DCA0,0,0,53,0,1,123
01:45:56,6456DD20,0,0,53,0,1,123
01:46:00,6456DDA0,0,0,53,0,1,122
01:46:04,6456DE20,0,0,53,0,1,122
01:46:08,6456DEA0,0,0,53,0,1,122
01:46:12,6456DF20,0,0,53,0,1,122
01:46:16,6456DFA0,0,0,53,0,1,122
01:46:18,6456DFE0,0,0,53,0,1,122
01:46:20,6456E020,0,0,53,0,1,122
01:46:24,6456E0A0,0,0,53,0,1,122
01:46:28,6456E120,0,0,53,0,1,122
01:46:32,6456E1A0,0,0,53,0,1,122
01:46:36,6456E220,0,0,53,0,1,122
01:46:40,6456E2A0,0,0,53,0,1,122
01:46:44,6456E320,0,0,53,0,1,122
01:46:48,6456E3A0,0,0,53,0,1,122
01:46:50,6456E3E0,0,0,53,0,1,122
01:46:52,6456E420,0,0,53,0,1,122
01:46:56,6456E4A0,0,0,53,0,1,122
01:47:00,6456E520,0,0,53,0,1,122
01:47:04,6456E5A0,0,0,53,0,1,122
01:47:08,6456E620,0,0,53,0,1,121
01:47:12,6456E6A0,0,0,53,0,1,121
01:47:16,6456E720,0,0,53,0,1,121
01:47:20,6456E7A0,0,0,53,0,1,121
01:47:22,6456E7E0,0,0,53,0,1,121
01:47:24,6456E820,0,0,53,0,1,121
01:47:28,6456E8A0,0,0,53,0,1,121
01:47:32,6456E920,0,0,53,0,1,121
01:47:36,6456E9A0,0,0,53,0,1,121
01:47:40,6456EA20,0,0,53,0,1,121
01:47:44,6456EAA0,0,0,53,0,1,121
01:47:48,6456EB20,0,0,53,0,1,121
01:47:52,6456EBA0,0,0,53,0,1,121
01:47:54,6456EBE0,0,0,53,0,1,121
01:47:56,6456EC20,0,0,53,0,1,121
01:48:00,6456ECA0,0,0,53,0,1,121
01:48:04,6456ED20,0,0,53,0,1,121
01:48:08,6456EDA0,0,0,53,0,1,121
01:48:12,6456EE20,0,0,53,0,1,120
01:48:16,6456EEA0,0,0,53,0,1,120
01:48:20,6456EF20,0,0,53,0,1,120
01:48:24,6456EFA0,0,0,53,0,1,120
01:48:28,6456F020,0,0,53,0,1,120
01:48:32,6456F0A0,0,0,53,0,1,120
01:48:36,6456F120,0,0,53,0,1,120
01:48:40,6456F1A0,0,0,53,0,1,120
01:48:44,6456F220,0,0,53,0,1,120
01:48:48,6456F2A0,0,0,53,0,1,120
01:48:52,6456F320,0,0,53,0,1,120
01:48:56,6456F3A0,0,0,53,0,1,120
01:48:58,6456F3E0,0,0,53,0,1,120
01:49:00,6456F420,0,0,53,0,1,120
01:49:04,6456F4A0,0,0,53,0,1,120
01:49:08,6456F520,0,0,53,0,1,120
01:49:12,6456F5A0,0,0,53,0,1,120
01:49:16,6456F620,0,0,53,0,1,120
01:49:20,6456F6A0,0,0,53,0,1,119
01:49:24,6456F720,0,0,53,0,1,119
01:49:28,6456F7A0,0,0,53,0,1,119
01:49:30,6456F7E0,0,0,53,0,1,119
01:49:32,6456F820,0,0,53,0,1,119
01:49:36,6456F8A0,0,0,53,0,1,119
01:49:40,6456F920,0,0,53,0,1,119
01:49:44,6456F9A0,0,0,53,0,1,119
01:49:48,6456FA20,0,0,53,0,1,119
01:49:52,6456FAA0,0,0,53,0,1,119
01:49:56,6456FB20,0,0,53,0,1,119
01:50:00,6456FBA0,0,0,53,0,1,119
01:50:02,6456FBE0,0,0,53,0,1,119
01:50:04,6456FC20,0,0,53,0,1,119
01:50:08,6456FCA0,0,0,53,0,1,119
01:50:12,6456FD20,0,0,53,0,1,119
01:50:16,6456FDA0,0,0,53,0,1,119
01:50:20,6456FE20,0,0,53,0,1,119
01:50:24,6456FEA0,0,0,53,0,1,119
01:50:28,6456FF20,0,0,53,0,1,118
01:50:32,6456FFA0,0,0,53,0,1,118
01:50:34,6456FFE0,0,0,53,0,1,118
01:50:36,64570020,0,0,53,0,1,118
01:50:40,645700A0,0,0,53,0,1,118
01:50:44,64570120,0,0,53,0,1,118
01:50:48,645701A0,0,0,53,0,1,118
01:50:52,64570220,0,0,53,0,1,118
01:50:56,645702A0,0,0,53,0,1,118
01:51:00,64570320,0,0,53,0,1,118
01:51:04,645703A0,0,0,53,0,1,118
01:51:06,645703E0,0,0,53,0,1,118
01:51:08,64570420,0,0,53,0,1,118
01:51:12,645704A0,0,0,53,0,1,118
01:51:16,64570520,0,0,53,0,1,118
01:51:20,645705A0,0,0,53,0,1,118
01:51:24,64570620,0,0,53,0,1,118
01:51:28,645706A0,0,0,53,0,1,118
01:51:32,64570720,0,0,53,0,1,118
01:51:36,645707A0,0,0,53,0,1,117
01:51:38,645707E0,0,0,53,0,1,117
01:51:40,64570820,0,0,53,0,1,117
01:51:44,645708A0,0,0,53,0,1,117
01:51:48,64570920,0,0,53,0,1,117
01:51:52,645709A0,0,0,53,0,1,117
01:51:56,64570A20,0,0,53,0,1,117
01:52:00,64570AA0,0,0,53,0,1,117
01:52:04,64570B20,0,0,53,0,1,117
01:52:08,64570BA0,0,0,53,0,1,117
01:52:10,64570BE0,0,0,53,0,1,117
01:52:12,64570C20,0,0,53,0,1,117
01:52:16,64570CA0,0,0,53,0,1,117
01:52:20,64570D20,0,0,53,0,1,117
01:52:24,64570DA0,0,0,53,0,1,117
01:52:28,64570E20,0,0,53,0,1,117
01:52:32,64570EA0,0,0,53,0,1,117
01:52:36,64570F20,0,0,53,0,1,117
01:52:40,64570FA0,0,0,53,0,1,117
01:52:44,64571020,0,0,53,0,1,116
01:52:48,645710A0,0,0,53,0,1,116
01:52:52,64571120,0,0,53,0,1,116
01:52:56,645711A0,0,0,53,0,1,116
01:53:00,64571220,0,0,53,0,1,116
01:53:04,645712A0,0,0,53,0,1,116
01:53:08,64571320,0,0,53,0,1,116
01:53:12,645713A0,0,0,53,0,1,116
01:53:14,645713E0,0,0,53,0,1,116
01:53:16,64571420,0,0,53,0,1,116
01:53:20,645714A0,0,0,53,0,1,116
01:53:24,64571520,0,0,53,0,1,116
01:53:28,645715A0,0,0,53,0,1,116
01:53:32,64571620,0,0,53,0,1,116
01:53:36,645716A0,0,0,53,0,1,116
01:53:40,64571720,0,0,53,0,1,116
01:53:44,645717A0,0,0,53,0,1,116
01:53:46,645717E0,0,0,53,0,1,116
01:53:48,64571820,0,0,53,0,1,116
01:53:52,645718A0,0,0,53,0,1,115
01:53:56,64571920,0,0,53,0,1,115
01:54:00,645719A0,0,0,53,0,1,115
01:54:04,64571A20,0,0,53,0,1,115
01:54:08,64571AA0,0,0,53,0,1,115
01:54:12,64571B20,0,0,53,0,1,115
01:54:16,64571BA0,0,0,53,0,1,115
01:54:18,64571BE0,0,0,53,0,1,115
01:54:20,64571C20,0,0,53,0,1,115
01:54:24,64571CA0,0,0,53,0,1,115
01:54:28,64571D20,0,0,53,0,1,115
01:54:32,64571DA0,0,0,53,0,1,115
01:54:36,64571E20,0,0,53,0,1,115
01:54:40,64571EA0,0,0,53,0,1,115
01:54:44,64571F20,0,0,53,0,1,115
01:54:48,64571FA0,0,0,53,0,1,115
01:54:50,64571FE0,0,0,53,0,1,115
01:54:52,64572020,0,0,53,0,1,115
01:54:56,645720A0,0,0,53,0,1,115
01:55:00,64572120,0,0,53,0,1,114
01:55:04,645721A0,0,0,53,0,1,114
01:55:08,64572220,0,0,53,0,1,114
01:55:12,645722A0,0,0,53,0,1,114
01:55:16,64572320,0,0,53,0,1,114
01:55:20,645723A0,0,0,53,0,1,114
01:55:22,645723E0,0,0,53,0,1,114
01:55:24,64572420,0,0,53,0,1,114
01:55:28,645724A0,0,0,53,0,1,114
01:55:32,64572520,0,0,53,0,1,114
01:55:36,645725A0,0,0,53,0,1,114
01:55:40,64572620,0,0,53,0,1,114
01:55:44,645726A0,0,0,53,0,1,114
01:55:48,64572720,0,0,53,0,1,114
01:55:52,645727A0,0,0,53,0,1,114
01:55:54,645727E0,0,0,53,0,1,114
01:55:56,64572820,0,0,53,0,1,114
01:56:00,645728A0,0,0,53,0,1,114
01:56:04,64572920,0,0,53,0,1,114
01:56:08,645729A0,0,0,53,0,1,113
01:56:12,64572A20,0,0,53,0,1,113
01:56:16,64572AA0,0,0,53,0,1,113
01:56:20,64572B20,0,0,53,0,1,113
01:56:24,64572BA0,0,0,53,0,1,113
01:56:26,64572BE0,0,0,53,0,1,113
01:56:28,64572C20,0,0,53,0,1,113
01:56:32,64572CA0,0,0,53,0,1,113
01:56:36,64572D20,0,0,53,0,1,113
01:56:40,64572DA0,0,0,53,0,1,113
01:56:44,64572E20,0,0,53,0,1,113
01:56:48,64572EA0,0,0,53,0,1,113
01:56:52,64572F20,0,0,53,0,1,113
01:56:56,64572FA0,0,0,53,0,1,113
01:57:00,64573020,0,0,53,0,1,113
01:57:04,645730A0,0,0,53,0,1,113
01:57:08,64573120,0,0,53,0,1,113
01:57:12,645731A0,0,0,53,0,1,113
01:57:16,64573220,0,0,53,0,1,112
01:57:20,645732A0,0,0,53,0,1,112
01:57:24,64573320,0,0,53,0,1,112
01:57:28,645733A0,0,0,53,0,1,112
01:57:30,645733E0,0,0,53,0,1,112
01:57:32,64573420,0,0,53,0,1,112
01:57:36,645734A0,0,0,53,0,1,112
01:57:40,64573520,0,0,53,0,1,112
01:57:44,645735A0,0,0,53,0,1,112
01:57:48,64573620,0,0,53,0,1,112
01:57:52,645736A0,0,0,53,0,1,112
01:57:56,64573720,0,0,53,0,1,112
01:58:00,645737A0,0,0,53,0,1,112
01:58:02,645737E0,0,0,53,0,1,112
01:58:04,64573820,0,0,53,0,1,112
01:58:08,645738A0,0,0,53,0,1,112
01:58:12,64573920,0,0,53,0,1,112
01:58:16,645739A0,0,0,53,0,1,112
01:58:20,64573A20,0,0,53,0,1,112
01:58:24,64573AA0,0,0,53,0,1,111
01:58:28,64573B20,0,0,53,0,1,111
01:58:32,64573BA0,0,0,53,0,1,111
01:58:34,64573BE0,0,0,53,0,1,111
01:58:36,64573C20,0,0,53,0,1,111
01:58:40,64573CA0,0,0,53,0,1,111
01:58:44,64573D20,0,0,53,0,1,111
01:58:48,64573DA0,0,0,53,0,1,111
01:58:52,64573E20,0,0,53,0,1,111
01:58:56,64573EA0,0,0,53,0,1,111
01:59:00,64573F20,0,0,53,0,1,111
01:59:04,64573FA0,0,0,53,0,1,111
01:59:06,64573FE0,0,0,53,0,1,111
01:59:08,64574020,0,0,53,0,1,111
01:59:12,645740A0,0,0,53,0,1,111
01:59:16,64574120,0,0,53,0,1,111
01:59:20,645741A0,0,0,53,0,1,111
01:59:24,64574220,0,0,53,0,1,111
01:59:28,645742A0,0,0,53,0,1,111
01:59:32,64574320,0,0,53,0,1,111
01:59:36,645743A0,0,0,53,0,1,110
01:59:38,645743E0,0,0,53,0,1,110
01:59:40,64574420,0,0,53,0,1,110
01:59:44,645744A0,0,0,53,0,1,110
01:59:48,64574520,0,0,53,0,1,110
01:59:52,645745A0,0,0,53,0,1,110
01:59:56,64574620,0,0,53,0,1,110
02:00:00,645746A0,0,0,53,0,1,110
02:00:04,64574720,0,0,53,0,1,110
02:00:08,645747A0,0,0,53,0,1,110
02:00:10,645747E0,0,0,53,0,1,110
02:00:12,64574820,0,0,53,0,1,110
02:00:16,645748A0,0,0,53,0,1,110
02:00:20,64574920,0,0,53,0,1,110
02:00:24,645749A0,0,0,53,0,1,110
02:00:28,64574A20,0,0,53,0,1,110
02:00:32,64574AA0,0,0,53,0,1,110
02:00:36,64574B20,0,0,53,0,1,110
02:00:40,64574BA0,0,0,53,0,1,110
02:00:42,64574BE0,0,0,53,0,1,110
02:00:44,64574C20,0,0,53,0,1,109
02:00:48,64574CA0,0,0,53,0,1,109
02:00:52,64574D20,0,0,53,0,1,109
02:00:56,64574DA0,0,0,53,0,1,109
02:01:00,64574E20,0,0,53,0,1,109
02:01:04,64574EA0,0,0,53,0,1,109
02:01:08,64574F20,0,0,53,0,1,109
02:01:12,64574FA0,0,0,53,0,1,109
02:01:16,64575020,0,0,53,0,1,109
02:01:20,645750A0,0,0,53,0,1,109
02:01:24,64575120,0,0,53,0,1,109
02:01:28,645751A0,0,0,53,0,1,109
02:01:32,64575220,0,0,53,0,1,109
02:01:36,645752A0,0,0,53,0,1,109
02:01:40,64575320,0,0,53,0,1,109
02:01:44,645753A0,0,0,53,0,1,109
02:01:46,645753E0,0,0,53,0,1,109
02:01:48,64575420,0,0,53,0,1,109
02:01:52,645754A0,0,0,53,0,1,108
02:01:56,64575520,0,0,53,0,1,108
02:02:00,645755A0,0,0,53,0,1,108
02:02:04,64575620,0,0,53,0,1,108
02:02:08,645756A0,0,0,53,0,1,108
02:02:12,64575720,0,0,53,0,1,108
02:02:16,645757A0,0,0,53,0,1,108
02:02:18,645757E0,0,0,53,0,1,108
02:02:20,64575820,0,0,53,0,1,108
02:02:24,645758A0,0,0,53,0,1,108
02:02:28,64575920,0,0,53,0,1,108
02:02:32,645759A0,0,0,53,0,1,108
02:02:36,64575A20,0,0,53,0,1,108
02:02:40,64575AA0,0,0,53,0,1,108
02:02:44,64575B20,0,0,53,0,1,108
02:02:48,64575BA0,0,0,53,0,1,108
02:02:50,64575BE0,0,0,53,0,1,108
02:02:52,64575C20,0,0,53,0,1,108
02:02:56,64575CA0,0,0,53,0,1,108
02:03:00,64575D20,0,0,53,0,1,108
02:03:04,64575DA0,0,0,53,0,1,107
02:03:08,64575E20,0,0,53,0,1,107
02:03:12,64575EA0,0,0,53,0,1,107
02:03:16,64575F20,0,0,53,0,1,107
02:03:20,64575FA0,0,0,53,0,1,107
02:03:22,64575FE0,0,0,53,0,1,107
02:03:24,64576020,0,0,53,0,1,107
02:03:28,645760A0,0,0,53,0,1,107
02:03:32,64576120,0,0,53,0,1,107
02:03:36,645761A0,0,0,53,0,1,107
02:03:40,64576220,0,0,53,0,1,107
02:03:44,645762A0,0,0,53,0,1,107
02:03:48,64576320,0,0,53,0,1,107
02:03:52,645763A0,0,0,53,0,1,107
02:03:54,645763E0,0,0,53,0,1,107
02:03:56,64576420,0,0,53,0,1,107
02:04:00,645764A0,0,0,53,0,1,107
02:04:04,64576520,0,0,53,0,1,107
02:04:08,645765A0,0,0,53,0,1,107
02:04:12,64576620,0,0,53,0,1,107
02:04:16,645766A0,0,0,53,0,1,106
02:04:20,64576720,0,0,53,0,1,106
02:04:24,645767A0,0,0,53,0,1,106
02:04:26,645767E0,0,0,53,0,1,106
02:04:28,64576820,0,0,53,0,1,106
02:04:32,645768A0,0,0,53,0,1,106
02:04:36,64576920,0,0,53,0,1,106
02:04:40,645769A0,0,0,53,0,1,106
02:04:44,64576A20,0,0,53,0,1,106
02:04:48,64576AA0,0,0,53,0,1,106
02:04:52,64576B20,0,0,53,0,1,106
02:04:56,64576BA0,0,0,53,0,1,106
02:04:58,64576BE0,0,0,53,0,1,106
02:05:00,64576C20,0,0,53,0,1,106
02:05:04,64576CA0,0,0,53,0,1,106
02:05:08,64576D20,0,0,53,0,1,106
02:05:12,64576DA0,0,0,53,0,1,106
02:05:16,64576E20,0,0,53,0,1,106
02:05:20,64576EA0,0,0,53,0,1,106
02:05:24,64576F20,0,0,53,0,1,105
02:05:28,64576FA0,0,0,53,0,1,105
02:05:32,64577020,0,0,53,0,1,105
02:05:36,645770A0,0,0,53,0,1,105
02:05:40,64577120,0,0,53,0,1,105
02:05:44,645771A0,0,0,53,0,1,105
02:05:48,64577220,0,0,53,0,1,105
02:05:52,645772A0,0,0,53,0,1,105
02:05:56,64577320,0,0,53,0,1,105
02:06:00,645773A0,0,0,53,0,1,105
02:06:02,645773E0,0,0,53,0,1,105
02:06:04,64577420,0,0,53,0,1,105
02:06:08,645774A0,0,0,53,0,1,105
02:06:12,64577520,0,0,53,0,1,105
02:06:16,645775A0,0,0,53,0,1,105
02:06:20,64577620,0,0,53,0,1,105
02:06:24,645776A0,0,0,53,0,1,105
02:06:28,64577720,0,0,53,0,1,105
02:06:32,645777A0,0,0,53,0,1,105
02:06:34,645777E0,0,0,53,0,1,104
02:06:36,64577820,0,0,53,0,1,104
02:06:40,645778A0,0,0,53,0,1,104
02:06:44,64577920,0,0,53,0,1,104
02:06:48,645779A0,0,0,53,0,1,104
02:06:52,64577A20,0,0,53,0,1,104
02:06:56,64577AA0,0,0,53,0,1,104
02:07:00,64577B20,0,0,53,0,1,104
02:07:04,64577BA0,0,0,53,0,1,104
02:07:06,64577BE0,0,0,53,0,1,104
02:07:08,64577C20,0,0,53,0,1,104
02:07:12,64577CA0,0,0,53,0,1,104
02:07:16,64577D20,0,0,53,0,1,104
02:07:20,64577DA0,0,0,53,0,1,104
02:07:24,64577E20,0,0,53,0,1,104
02:07:28,64577EA0,0,0,53,0,1,104
02:07:32,64577F20,0,0,53,0,1,104
02:07:36,64577FA0,0,0,53,0,1,104
02:07:38,64577FE0,0,0,53,0,1,104
02:07:40,64578020,0,0,53,0,1,104
02:07:44,645780A0,0,0,53,0,1,104
02:07:48,64578120,0,0,53,0,1,103
02:07:52,645781A0,0,0,53,0,1,103
02:07:56,64578220,0,0,53,0,1,103
02:08:00,645782A0,0,0,53,0,1,103
02:08:04,64578320,0,0,53,0,1,103
02:08:08,645783A0,0,0,53,0,1,103
02:08:10,645783E0,0,0,53,0,1,103
02:08:12,64578420,0,0,53,0,1,103
02:08:16,645784A0,0,0,53,0,1,103
02:08:20,64578520,0,0,53,0,1,103
02:08:24,645785A0,0,0,53,0,1,103
02:08:28,64578620,0,0,53,0,1,103
02:08:32,645786A0,0,0,53,0,1,103
02:08:36,64578720,0,0,53,0,1,103
02:08:40,645787A0,0,0,53,0,1,103
02:08:42,645787E0,0,0,53,0,1,103
02:08:44,64578820,0,0,53,0,1,103
02:08:48,645788A0,0,0,53,0,1,103
02:08:52,64578920,0,0,53,0,1,103
02:08:56,645789A0,0,0,53,0,1,103
02:09:00,64578A20,0,0,53,0,1,102
02:09:04,64578AA0,0,0,53,0,1,102
02:09:08,64578B20,0,0,53,0,1,102
02:09:12,64578BA0,0,0,53,0,1,102
02:09:14,64578BE0,0,0,53,0,1,102
02:09:16,64578C20,0,0,53,0,1,102
02:09:20,64578CA0,0,0,53,0,1,102
02:09:24,64578D20,0,0,53,0,1,102
02:09:28,64578DA0,0,0,53,0,1,102
02:09:32,64578E20,0,0,53,0,1,102
02:09:36,64578EA0,0,0,53,0,1,102
02:09:40,64578F20,0,0,53,0,1,102
02:09:44,64578FA0,0,0,53,0,1,102
02:09:48,64579020,0,0,53,0,1,102
02:09:52,645790A0,0,0,53,0,1,102
02:09:56,64579120,0,0,53,0,1,102
02:10:00,645791A0,0,0,53,0,1,102
02:10:04,64579220,0,0,53,0,1,102
02:10:08,645792A0,0,0,53,0,1,102
02:10:12,64579320,0,0,53,0,1,101
02:10:16,645793A0,0,0,53,0,1,101
02:10:18,645793E0,0,0,53,0,1,101
02:10:20,64579420,0,0,53,0,1,101
02:10:24,645794A0,0,0,53,0,1,101
02:10:28,64579520,0,0,53,0,1,101
02:10:32,645795A0,0,0,53,0,1,101
02:10:36,64579620,0,0,53,0,1,101
02:10:40,645796A0,0,0,53,0,1,101
02:10:44,64579720,0,0,53,0,1,101
02:10:48,645797A0,0,0,53,0,1,101
02:10:50,645797E0,0,0,53,0,1,101
02:10:52,64579820,0,0,53,0,1,101
02:10:56,645798A0,0,0,53,0,1,101
02:11:00,64579920,0,0,53,0,1,101
02:11:04,645799A0,0,0,53,0,1,101
02:11:08,64579A20,0,0,53,0,1,101
02:11:12,64579AA0,0,0,53,0,1,101
02:11:16,64579B20,0,0,53,0,1,101
02:11:20,64579BA0,0,0,53,0,1,101
02:11:22,64579BE0,0,0,53,0,1,100
02:11:24,64579C20,0,0,53,0,1,100
02:11:28,64579CA0,0,0,53,0,1,100
02:11:32,64579D20,0,0,53,0,1,100
02:11:36,64579DA0,0,0,53,0,1,100
02:11:40,64579E20,0,0,53,0,1,100
02:11:44,64579EA0,0,0,53,0,1,100
02:11:48,64579F20,0,0,53,0,1,100
02:11:52,64579FA0,0,0,53,0,1,100
02:11:54,64579FE0,0,0,53,0,1,100
02:11:56,6457A020,0,0,53,0,1,100
02:12:00,6457A0A0,0,0,53,0,1,100
02:12:04,6457A120,0,0,53,0,1,100
02:12:08,6457A1A0,0,0,53,0,1,100
02:12:12,6457A220,0,0,53,0,1,100
02:12:16,6457A2A0,0,0,53,0,1,100
02:12:20,6457A320,0,0,53,0,1,100
02:12:24,6457A3A0,0,0,53,0,1,100
02:12:26,6457A3E0,0,0,53,0,1,100
02:12:28,6457A420,0,0,53,0,1,100
02:12:32,6457A4A0,0,0,53,0,1,100
02:12:36,6457A520,0,0,53,0,1,99
02:12:40,6457A5A0,0,0,53,0,1,99
02:12:44,6457A620,0,0,53,0,1,99
02:12:48,6457A6A0,0,0,53,0,1,99
02:12:52,6457A720,0,0,53,0,1,99
02:12:56,6457A7A0,0,0,53,0,1,99
02:12:58,6457A7E0,0,0,53,0,1,99
02:13:00,6457A820,0,0,53,0,1,99
02:13:04,6457A8A0,0,0,53,0,1,99
02:13:08,6457A920,0,0,53,0,1,99
02:13:12,6457A9A0,0,0,53,0,1,99
02:13:16,6457AA20,0,0,53,0,1,99
02:13:20,6457AAA0,0,0,53,0,1,99
02:13:24,6457AB20,0,0,53,0,1,99
02:13:28,6457ABA0,0,0,53,0,1,99
02:13:30,6457ABE0,0,0,53,0,1,99
02:13:32,6457AC20,0,0,53,0,1,99
02:13:36,6457ACA0,0,0,53,0,1,99
02:13:40,6457AD20,0,0,53,0,1,99
02:13:44,6457ADA0,0,0,53,0,1,99
02:13:48,6457AE20,0,0,53,0,1,99
02:13:52,6457AEA0,0,0,53,0,1,98
02:13:56,6457AF20,0,0,53,0,1,98
02:14:00,6457AFA0,0,0,53,0,1,98
02:14:04,6457B020,0,0,53,0,1,98